Location: Seattle
(47.6064°N, 122.3308°W)
Time: 15:07:49
(UTC-08:00)

S-56A Canister/Altair - Pass Details

Date: 12 October 2022
Orbit: 638 x 2494 km, 38.9° (Epoch: 03 December)

Event Time Altitude Azimuth Distance (km) Brightness Sun altitude
Rises 22:36:46 0° 225° (SW) 6,095 12.1 -40.5°
Reaches altitude 10° 22:41:00 10° 219° (SW) 5,142 11.6 -41.0°
Enters shadow 22:45:53 23° 208° (SSW) 4,125 11.0 -41.6°
